Location: Unspecified
(32.8958°N, 0.0000°E)
Time: 03:07:24
(UTC+00:00)

IHOPSAT-TD - Visible Passes

Search period start: 04 April 2026 00:00
Search period end: 14 April 2026 00:00
Orbit: 528 x 536 km, 37.0° (Epoch: 29 March)

Date Brightness Start Highest point End Pass type
(mag) Time Alt. Az. Time Alt. Az. Time Alt. Az.
4 Apr ? 03:00:20 13° E 03:00:20 13° E 03:00:48 10° E visible
4 Apr ? 04:35:36 27° WSW 04:37:09 39° SSW 04:40:59 10° SE visible
5 Apr ? 04:24:34 31° SW 04:24:52 31° SSW 04:28:30 10° SSE visible
6 Apr ? 04:13:42 22° S 04:13:42 22° S 04:15:55 10° SSE visible
7 Apr ? 04:02:59 11° SSE 04:02:59 11° SSE 04:03:12 10° SSE visible
7 Apr ? 19:23:41 10° S 19:25:20 13° SSE 19:25:20 13° SSE visible
8 Apr ? 19:10:38 10° S 19:13:20 17° SE 19:14:41 15° ESE visible
8 Apr ? 20:49:24 10° WSW 20:49:58 14° WSW 20:49:58 14° WSW visible
9 Apr ? 18:57:49 10° SSW 19:00:58 22° SSE 19:03:52 11° E visible
9 Apr ? 20:37:06 10° WSW 20:39:09 29° WSW 20:39:09 29° WSW visible
10 Apr ? 20:24:50 10° WSW 20:28:09 57° W 20:28:09 57° W visible
11 Apr ? 20:12:34 10° W 20:16:37 69° NNW 20:16:59 64° NNE visible
12 Apr ? 20:00:19 10° W 20:04:20 61° NNW 20:05:39 38° NE visible
13 Apr ? 19:48:04 10° W 19:52:03 55° N 19:54:12 25° ENE visible
13 Apr ? 21:28:57 10° WNW 21:29:26 13° WNW 21:29:26 13° WNW visible
